McGuire AFB, NJ

11:54 PM EST on February 23, 2018 (GMT -0500)
McGuire Air Force Base

Weather History for KWRI - May, 2013

Change the Weather History Date:

Wednesday, May 22, 2013

  Actual Average Record
Temperature  
Mean Temperature 76 °F -  
Max Temperature 86 °F 70 °F 87 °F (2004)
Min Temperature 66 °F 50 °F 41 °F (2002)
Cooling Degree Days 10    
Growing Degree Days 26 (Base 50)    
Moisture  
Dew Point 69 °F    
Average Humidity 90    
Maximum Humidity 100    
Minimum Humidity 60    
Precipitation  
Precipitation 0.00 in - - ()
Sea Level Pressure  
Sea Level Pressure 29.88 in    
Wind  
Wind Speed 6 mph (SSW)    
Max Wind Speed 14 mph    
Max Gust Speed 20 mph    
Visibility 8 miles    
Events Rain    
Averages and records for this station are not official NWS values.
T = Trace of Precipitation, MM = Missing Value Source: NWS Daily Summary

Daily Weather History Graph

Daily Weather History Graph

Search for Another Location

Airport or City:

Trip Planner

Search our weather history database for the weather conditions in past years. The results will help you decide how hot, cold, wet, or windy it might be!

Date:

Astronomy

May. 22, 2013 Rise Set
Actual Time 5:37 AM EDT 8:13 PM EDT
Civil Twilight 5:05 AM EDT 8:44 PM EDT
Nautical Twilight 4:26 AM EDT 9:24 PM EDT
Astronomical Twilight 3:42 AM EDT 10:08 PM EDT
Moon 5:32 PM EDT (5/22) 3:39 AM EDT (5/22)
Length of Visible Light 15h 39m
Length of Day
14h 36m
Waxing Gibbous, 91% of the Moon is Illuminated
May 22
Waxing Gibbous
May 25
Full
May 31
Last Quarter
Jun 8
New
Jun 16
First Quarter

Hourly Weather History & Observations

Time (EDT) Temp. Heat Index Dew Point Humidity Pressure Visibility Wind Dir Wind Speed Gust Speed Precip Events Conditions
12:58 AM 68.0 °F - 66.6 °F 95% 29.89 in 10.0 mi SSW 5.8 mph - N/A   Clear
1:58 AM 66.7 °F - 66.6 °F 99% 29.88 in 10.0 mi South 6.9 mph - N/A   Clear
2:58 AM 66.6 °F - 66.2 °F 99% 29.87 in 10.0 mi SSW 3.5 mph - N/A   Clear
3:31 AM 66.2 °F - 66.2 °F 100% 29.85 in 10.0 mi SSW 4.6 mph - N/A   Clear
3:43 AM 66.2 °F - 66.2 °F 100% 29.85 in 10.0 mi SSW 3.5 mph - N/A   Clear
3:48 AM 66.2 °F - 66.2 °F 100% 29.85 in 10.0 mi Calm Calm - N/A   Clear
3:58 AM 66.2 °F - 66.0 °F 99% 29.86 in 9.0 mi SSW 3.5 mph - N/A   Clear
4:41 AM 66.2 °F - 66.2 °F 100% 29.85 in 7.0 mi SSW 4.6 mph - N/A   Partly Cloudy
4:46 AM 66.2 °F - 66.2 °F 100% 29.85 in 7.0 mi SSW 4.6 mph - N/A   Partly Cloudy
4:58 AM 66.0 °F - 66.0 °F 100% 29.86 in 6.0 mi South 4.6 mph - N/A   Scattered Clouds
4:59 AM 66.2 °F - 66.2 °F 100% 29.85 in 6.0 mi South 4.6 mph - N/A Rain Light Rain
5:15 AM 66.2 °F - 66.2 °F 100% 29.85 in 6.0 mi South 6.9 mph - N/A   Overcast
5:36 AM 66.2 °F - 66.2 °F 100% 29.86 in 5.0 mi SW 5.8 mph - N/A   Overcast
5:53 AM 68.0 °F - 68.0 °F 100% 29.87 in 4.0 mi SSW 6.9 mph - N/A Rain Light Rain
5:58 AM 67.1 °F - 67.1 °F 100% 29.88 in 4.0 mi SSW 6.9 mph - 0.00 in Rain Light Rain
5:59 AM 68.0 °F - 68.0 °F 100% 29.87 in 4.0 mi South 5.8 mph - N/A   Overcast
6:07 AM 68.0 °F - 68.0 °F 100% 29.87 in 3.0 mi SSW 5.8 mph - N/A   Overcast
6:43 AM 68.0 °F - 68.0 °F 100% 29.88 in 3.0 mi South 8.1 mph - N/A   Overcast
6:58 AM 68.0 °F - 68.0 °F 100% 29.89 in 3.0 mi South 5.8 mph - 0.00 in   Overcast
7:58 AM 69.4 °F - 69.3 °F 99% 29.90 in 3.0 mi SSW 5.8 mph - N/A   Overcast
8:56 AM 71.6 °F - 71.6 °F 100% 29.89 in 5.0 mi SSW 6.9 mph - N/A   Overcast
8:58 AM 71.6 °F - 71.6 °F 100% 29.91 in 5.0 mi SSW 6.9 mph - N/A   Overcast
9:16 AM 71.6 °F - 71.6 °F 100% 29.90 in 7.0 mi SW 6.9 mph - N/A   Overcast
9:31 AM 71.6 °F - 71.6 °F 100% 29.90 in 8.0 mi Variable 4.6 mph - N/A   Overcast
9:58 AM 72.9 °F - 71.1 °F 94% 29.91 in 10.0 mi SSW 5.8 mph - N/A   Overcast
10:03 AM 73.4 °F - 71.6 °F 94% 29.90 in 10.0 mi SW 6.9 mph - N/A   Overcast
10:58 AM 73.9 °F - 71.1 °F 91% 29.92 in 10.0 mi WSW 9.2 mph - N/A   Overcast
11:18 AM 75.2 °F - 71.6 °F 89% 29.91 in 10.0 mi SW 8.1 mph - N/A   Overcast
11:49 AM 75.2 °F - 71.6 °F 89% 29.90 in 10.0 mi SW 9.2 mph - N/A   Overcast
11:58 AM 75.2 °F - 70.9 °F 86% 29.91 in 10.0 mi SW 10.4 mph - N/A   Overcast
12:58 PM 75.9 °F - 70.9 °F 84% 29.91 in 10.0 mi SSW 10.4 mph - N/A   Overcast
1:28 PM 78.8 °F - 71.6 °F 78% 29.88 in 10.0 mi South 9.2 mph - N/A   Overcast
1:58 PM 80.8 °F 84.9 °F 71.8 °F 74% 29.88 in 10.0 mi SW 9.2 mph - N/A   Mostly Cloudy
2:00 PM 80.6 °F 84.6 °F 71.6 °F 74% 29.87 in 10.0 mi SW 11.5 mph - N/A   Scattered Clouds
2:58 PM 84.2 °F 89.6 °F 71.8 °F 66% 29.86 in 10.0 mi SW 10.4 mph 17.3 mph N/A   Partly Cloudy
3:58 PM 85.8 °F 91.1 °F 71.1 °F 61% 29.84 in 10.0 mi SSW 13.8 mph 19.6 mph N/A   Clear
4:58 PM 84.6 °F 88.5 °F 69.3 °F 60% 29.84 in 10.0 mi SSW 12.7 mph - N/A   Clear
5:58 PM 83.1 °F 86.8 °F 69.3 °F 63% 29.83 in 10.0 mi SSW 10.4 mph - N/A   Clear
6:58 PM 81.7 °F 85.4 °F 70.0 °F 68% 29.84 in 10.0 mi South 12.7 mph - N/A   Clear
7:58 PM 78.3 °F - 69.4 °F 74% 29.85 in 10.0 mi South 9.2 mph - N/A   Clear
8:58 PM 75.6 °F - 68.9 °F 80% 29.87 in 10.0 mi SSW 9.2 mph - N/A   Clear
9:58 PM 73.0 °F - 68.7 °F 86% 29.89 in 10.0 mi South 6.9 mph - N/A   Clear
10:58 PM 70.7 °F - 67.5 °F 89% 29.90 in 10.0 mi SSW 8.1 mph - N/A   Clear
11:58 PM 70.5 °F - 67.1 °F 89% 29.90 in 10.0 mi South 8.1 mph - N/A   Scattered Clouds